Location: Chand?puram
(16.7564°N, 80.2764°E)
Time: 15:07:57
(UTC+00:00)

Cosmos 1190 Rocket - Pass Details

Date: 15 November 2025
Orbit: 752 x 775 km, 74.1° (Epoch: 12 December)

Event Time Altitude Azimuth Distance (km) Brightness Sun altitude
Rises 00:16:48 0° 339° (NNW) 3,224 6.9 -6.8°
Reaches altitude 10° 00:19:13 10° 335° (NNW) 2,293 6.1 -6.2°
Maximum altitude 00:24:17 56° 258° (WSW) 901 4.1 -5.1°
Drops below altitude 10° 00:29:20 10° 181° (S) 2,275 6.7 -3.9°
Sets 00:31:43 0° 177° (S) 3,196 7.5 -3.4°
